Regional Weather Roundup
Issued by NWS Little Rock, AR

Home | Current Version | Previous Version | Text Only | Print | Product List | Glossary Off
Versions: 1 2 3 4 5 6 7 8 9 10 11 12 13 14 15 16 17 18 19 20 21 22 23 24 25 26 27 28 29 30 31 32 33 34 35 36 37 38 39 40 41 42 43 44 45 46 47 48 49 50

000
ASUS44 KLZK 250205
RWRLZK

WEATHER ROUNDUP FOR ARKANSAS
NATIONAL WEATHER SERVICE LITTLE ROCK AR
800 PM CST WED DEC 24 2014

NOTE: "FAIR" INDICATES FEW OR NO CLOUDS BELOW 12,000 FEET WITH NO
SIGNIFICANT WEATHER AND/OR OBSTRUCTIONS TO VISIBILITY.

ARZ001-003-010-029-250300-
NORTHWEST ARKANSAS

CITY           SKY/WX    TMP DP  RH WIND       PRES   REMARKS
FAYETTEVILLE   MOCLDY    35  29  78 W5        29.96R WCI  31
FORT SMITH     CLEAR     37  29  72 CALM      30.00S
HARRISON       CLOUDY    36  30  79 W13G18    29.92R
BENTONVILLE    CLOUDY    36  28  75 W7        29.96R
ROGERS         CLOUDY    35  29  78 W9        29.95R WCI  28
SILOAM SPGS    CLOUDY    34  25  69 SW5       29.98R WCI  30
HIGHFILL       CLOUDY    35  30  82 W7        29.95R WCI  29
SPRINGDALE     CLOUDY    36  28  75 W7        29.97R
$$

ARZ004-005-016-250300-
NORTH CENTRAL ARKANSAS

CITY           SKY/WX    TMP DP  RH WIND       PRES   REMARKS
BATESVILLE     CLOUDY    43  30  61 W5        29.95R
FLIPPIN        CLOUDY    39  28  65 W8        29.93R
MTN HOME       CLOUDY    39  32  76 W7        29.91R
$$

ARZ040-041-250300-
WEST CENTRAL ARKANSAS

CITY           SKY/WX    TMP DP  RH WIND       PRES   REMARKS
MENA           CLEAR     36  32  87 CALM      29.99F
MOUNT IDA      CLOUDY    40  31  70 W3        29.98R
$$

ARZ009-017-025-026-028-250300-
NORTHEAST ARKANSAS

CITY           SKY/WX    TMP DP  RH WIND       PRES   REMARKS
CORNING        CLOUDY    39  36  87 W8        29.92R
JONESBORO      PTCLDY    41  35  79 W10       29.93R
NEWPORT        CLOUDY    42  35  76 W7        29.97R
WALNUT RIDGE   CLOUDY    41  32  70 W9        29.93R
BLYTHEVILLE    CLOUDY    42  36  79 W9        29.92R
$$

ARZ022-023-033-042-044-250300-
CENTRAL ARKANSAS

CITY           SKY/WX    TMP DP  RH WIND       PRES   REMARKS
LITTLE ROCK    CLOUDY    44  31  60 W9G18     30.01R
N LITTLE ROCK  CLOUDY    41  35  78 W5        30.01R
JACKSONVILLE   CLOUDY    42  33  69 W10       29.99R
SEARCY         CLOUDY    43  34  70 W8        29.99R
HOT SPRINGS    CLOUDY    42  32  67 W6        30.01R
RUSSELLVILLE   CLOUDY    41  32  70 W10       29.98R
CLINTON        MOCLDY    41  32  70 W5        29.98R
$$

ARZ036-250300-
EAST ARKANSAS

CITY           SKY/WX    TMP DP  RH WIND       PRES   REMARKS
WEST MEMPHIS   CLOUDY    42  39  89 SW5       29.95R
$$

ARZ050-053-066-070-073-250300-
SOUTHWEST ARKANSAS

CITY           SKY/WX    TMP DP  RH WIND       PRES   REMARKS
ARKADELPHIA    MOCLDY    43  37  79 W3        30.05R
CAMDEN         CLOUDY    43  32  65 MISG      30.04S
TEXARKANA      CLEAR     38  32  79 SW3       30.05R
EL DORADO      CLOUDY    42  34  73 W5        30.05R
DE QUEEN       CLEAR     33  31  92 CALM      30.02R
$$

ARZ056-057-069-250300-
SOUTHEAST ARKANSAS

CITY           SKY/WX    TMP DP  RH WIND       PRES   REMARKS
PINE BLUFF     CLOUDY    43  33  68 W9        30.02R
STUTTGART      CLOUDY    43  34  70 W14       30.00R
MONTICELLO     CLOUDY    42  36  79 W6        30.02R

$$





USA.gov is the U.S. government's official web portal to all federal, state and local government web resources and services.